sat.trackr.live / text

‹ back to catalog

STARLINK-35776

NORAD 66282 · 2025-247T

PAYLOAD ACTIVE UNKNOWN

§ Identity

Operator
Country
US
Launch date
2025-10-31
Launch site
AFWTR
Launch vehicle
Mass (kg)
RCS (m²)

Purposes: comms

External: N2YO · Heavens-Above · Gunter

§ Orbital elements

Epoch: 2026-05-25T04:32:02.745888Z

Period
94.10 min
Inclination
53.1595°
Eccentricity
0.0001666
Mean motion
15.30207951 rev/d
Perigee alt
474.0 km
Apogee alt
476.3 km
Semi-major
6,853.3 km
B*
4.9019e-4
RAAN
196.2791°
Arg perigee
72.4147°
Mean anomaly
287.7036°
Rev number
3,274

§ Raw data

STARLINK-357761 66282U 25247T   26145.18892067  .00014190  00000+0  49019-3 0  99932 66282  53.1595 196.2791 0001666  72.4147 287.7036 15.30207951 32745

JSON: /api/v1/satellites/66282 · /tle

For live sub-satellite position, see the globe view (requires WebGL).

§ Visibility from observer

Set your observer location to see the next 7 days of passes ≥ 10°. The values pass through the URL so the page stays shareable.

No JS? Fill the form by hand. The geolocation button needs JavaScript.